Tracking 30995 objects as of 7-Jul-2025
HD Live streaming from Space Station
objects crossing your sky now

SL-14 R/B

Track SL-14 R/B now!
10-day predictions


NORAD ID: 17588
Int'l Code: 1987-026G
Perigee: 1,418.5 km
Apogee: 1,477.1 km
Inclination: 82.6 °
Period: 114.7 minutes
Semi major axis: 7818 km
RCS: 5.338 m2 (large)
Launch date: March 13, 1987
Source: Commonwealth of Independent States (former USSR) (CIS)
Launch site: PLESETSK MISSILE AND SPACE COMPLEX (PKMTR)

Note: This is a ROCKET BODY
Your satellite tracking list
Your tracking list is empty




NASA's NSSDC Master Catalog

Two Line Element Set (TLE):
1 17588U 87026G   25187.57093353  .00000043  00000-0  20038-3 0  9993
2 17588  82.5669 203.2991 0037464 211.6583 266.3025 12.55712797756191
Source of the keplerian elements: AFSPC